Location: Nairn
(57.5833°N, 3.8667°W)
Time: 18:41:30
(UTC+00:00)

SL-08 R/B - Pass Details

Date: 07 August 2020
Orbit: 673 x 740 km, 98.4° (Epoch: 23 September)

Event Time Altitude Azimuth Distance (km) Brightness Sun altitude
Rises 02:44:15 0° 163° (SSE) 3,162 6.3 -10.4°
Reaches altitude 10° 02:46:31 10° 164° (SSE) 2,247 5.6 -10.2°
Maximum altitude 02:51:29 84° 253° (WSW) 753 3.4 -9.8°
Drops below altitude 10° 02:56:29 10° 342° (NNW) 2,261 6.4 -9.4°
Sets 02:58:47 0° 344° (NNW) 3,184 7.2 -9.2°
